Time,TemperatureF,DewpointF,PressureIn,WindDirection,WindDirectionDegrees,WindSpeedMPH,WindSpeedGustMPH,Humidity,HourlyPrecipIn,Conditions,Clouds,dailyrainin,SolarRadiationWatts/m^2,SoftwareType,DateUTC
2013-05-08 00:00:00,46.0,33.0,-100.00,SE,135,0.0,-999.0,58,-99.99,,,-99.99,0.000000,,2013-05-08 05:00:00,
2013-05-08 00:42:00,46.0,33.0,-100.00,SE,135,0.0,-999.0,58,-99.99,,,-99.99,0.000000,,2013-05-08 05:42:00,
2013-05-08 00:52:00,46.0,33.0,-100.00,SE,135,0.0,-999.0,58,-99.99,,,-99.99,0.000000,,2013-05-08 05:52:00,
2013-05-08 01:00:00,44.0,34.0,-100.00,SE,135,0.0,-999.0,66,-99.99,,,-99.99,0.000000,,2013-05-08 06:00:00,
2013-05-08 01:42:00,44.0,34.0,-100.00,SE,135,0.0,-999.0,66,-99.99,,,-99.99,0.000000,,2013-05-08 06:42:00,
2013-05-08 01:52:00,44.0,34.0,-100.00,SE,135,0.0,-999.0,66,-99.99,,,-99.99,0.000000,,2013-05-08 06:52:00,
2013-05-08 02:00:00,42.0,35.0,-100.00,SE,135,0.0,-999.0,73,-99.99,,,-99.99,0.000000,,2013-05-08 07:00:00,
2013-05-08 02:42:00,42.0,35.0,-100.00,SE,135,0.0,-999.0,73,-99.99,,,-99.99,0.000000,,2013-05-08 07:42:00,
2013-05-08 02:52:00,42.0,35.0,-100.00,SE,135,0.0,-999.0,73,-99.99,,,-99.99,0.000000,,2013-05-08 07:52:00,
2013-05-08 03:00:00,45.0,35.0,-100.00,WSW,247,1.0,-999.0,68,-99.99,,,-99.99,0.000000,,2013-05-08 08:00:00,
2013-05-08 03:43:00,45.0,35.0,-100.00,WSW,247,1.0,-999.0,68,-99.99,,,-99.99,0.000000,,2013-05-08 08:43:00,
2013-05-08 03:52:00,45.0,35.0,-100.00,WSW,247,1.0,-999.0,68,-99.99,,,-99.99,0.000000,,2013-05-08 08:52:00,
2013-05-08 04:00:00,45.0,35.0,-100.00,NW,315,1.0,-999.0,69,-99.99,,,-99.99,0.000000,,2013-05-08 09:00:00,
2013-05-08 04:42:00,45.0,35.0,-100.00,NW,315,1.0,-999.0,69,-99.99,,,-99.99,0.000000,,2013-05-08 09:42:00,
2013-05-08 04:53:00,45.0,35.0,-100.00,NW,315,1.0,-999.0,69,-99.99,,,-99.99,0.000000,,2013-05-08 09:53:00,
2013-05-08 06:00:00,39.0,36.0,-100.00,South,180,0.0,-999.0,88,-99.99,,,-99.99,6.960000,,2013-05-08 11:00:00,
2013-05-08 06:42:00,39.0,36.0,-100.00,South,180,0.0,-999.0,88,-99.99,,,-99.99,6.960000,,2013-05-08 11:42:00,
2013-05-08 06:52:00,39.0,36.0,-100.00,South,180,0.0,-999.0,88,-99.99,,,-99.99,6.960000,,2013-05-08 11:52:00,
2013-05-08 08:00:00,60.0,35.0,-100.00,WNW,292,2.0,-999.0,39,-99.99,,,-99.99,82.360001,,2013-05-08 13:00:00,
2013-05-08 08:42:00,60.0,35.0,-100.00,WNW,292,2.0,-999.0,39,-99.99,,,-99.99,82.360001,,2013-05-08 13:42:00,
2013-05-08 08:52:00,60.0,35.0,-100.00,WNW,292,2.0,-999.0,39,-99.99,,,-99.99,82.360001,,2013-05-08 13:52:00,
2013-05-08 09:00:00,63.0,33.0,-100.00,WNW,292,3.0,-999.0,33,-99.99,,,-99.99,332.920013,,2013-05-08 14:00:00,
2013-05-08 09:42:00,63.0,33.0,-100.00,WNW,292,3.0,-999.0,33,-99.99,,,-99.99,332.920013,,2013-05-08 14:42:00,
2013-05-08 09:52:00,63.0,33.0,-100.00,WNW,292,3.0,-999.0,33,-99.99,,,-99.99,332.920013,,2013-05-08 14:52:00,
2013-05-08 10:00:00,67.0,28.0,-100.00,West,270,3.0,-999.0,23,-99.99,,,-99.99,618.280029,,2013-05-08 15:00:00,
2013-05-08 10:42:00,67.0,28.0,-100.00,West,270,3.0,-999.0,23,-99.99,,,-99.99,618.280029,,2013-05-08 15:42:00,
2013-05-08 10:53:00,67.0,28.0,-100.00,West,270,3.0,-999.0,23,-99.99,,,-99.99,618.280029,,2013-05-08 15:53:00,
2013-05-08 11:00:00,70.0,35.0,-100.00,West,270,3.0,-999.0,27,-99.99,,,-99.99,736.599976,,2013-05-08 16:00:00,
2013-05-08 11:42:00,70.0,35.0,-100.00,West,270,3.0,-999.0,27,-99.99,,,-99.99,736.599976,,2013-05-08 16:42:00,
2013-05-08 11:52:00,70.0,35.0,-100.00,West,270,3.0,-999.0,27,-99.99,,,-99.99,736.599976,,2013-05-08 16:52:00,
2013-05-08 12:00:00,72.0,32.0,-100.00,West,270,3.0,-999.0,22,-99.99,,,-99.99,835.200012,,2013-05-08 17:00:00,
2013-05-08 12:52:00,72.0,32.0,-100.00,West,270,3.0,-999.0,22,-99.99,,,-99.99,835.200012,,2013-05-08 17:52:00,
2013-05-08 13:00:00,74.0,38.0,-100.00,South,180,4.0,-999.0,27,-99.99,,,-99.99,727.320007,,2013-05-08 18:00:00,
2013-05-08 13:42:00,74.0,38.0,-100.00,South,180,4.0,-999.0,27,-99.99,,,-99.99,727.320007,,2013-05-08 18:42:00,
2013-05-08 13:52:00,74.0,38.0,-100.00,South,180,4.0,-999.0,27,-99.99,,,-99.99,727.320007,,2013-05-08 18:52:00,
2013-05-08 15:00:00,73.0,39.0,-100.00,ESE,112,4.0,-999.0,29,-99.99,,,-99.99,786.479980,,2013-05-08 20:00:00,
2013-05-08 15:42:00,73.0,39.0,-100.00,ESE,112,4.0,-999.0,29,-99.99,,,-99.99,786.479980,,2013-05-08 20:42:00,
2013-05-08 15:52:00,73.0,39.0,-100.00,ESE,112,4.0,-999.0,29,-99.99,,,-99.99,786.479980,,2013-05-08 20:52:00,
2013-05-08 16:00:00,74.0,38.0,-100.00,SE,135,5.0,-999.0,27,-99.99,,,-99.99,689.039978,,2013-05-08 21:00:00,
2013-05-08 16:43:00,74.0,38.0,-100.00,SE,135,5.0,-999.0,27,-99.99,,,-99.99,689.039978,,2013-05-08 21:43:00,
2013-05-08 16:53:00,74.0,38.0,-100.00,SE,135,5.0,-999.0,27,-99.99,,,-99.99,689.039978,,2013-05-08 21:53:00,
2013-05-08 17:00:00,75.0,38.0,-100.00,SSE,157,5.0,-999.0,26,-99.99,,,-99.99,544.039978,,2013-05-08 22:00:00,
2013-05-08 17:42:00,75.0,38.0,-100.00,SSE,157,5.0,-999.0,26,-99.99,,,-99.99,544.039978,,2013-05-08 22:42:00,
2013-05-08 17:53:00,75.0,38.0,-100.00,SSE,157,5.0,-999.0,26,-99.99,,,-99.99,544.039978,,2013-05-08 22:53:00,
2013-05-08 18:00:00,73.0,38.0,-100.00,SSE,157,5.0,-999.0,27,-99.99,,,-99.99,249.399994,,2013-05-08 23:00:00,
2013-05-08 18:42:00,73.0,38.0,-100.00,SSE,157,5.0,-999.0,27,-99.99,,,-99.99,249.399994,,2013-05-08 23:42:00,
2013-05-08 18:52:00,73.0,38.0,-100.00,SSE,157,5.0,-999.0,27,-99.99,,,-99.99,249.399994,,2013-05-08 23:52:00,
2013-05-08 20:00:00,65.0,37.0,-100.00,SSE,157,2.0,-999.0,34,-99.99,,,-99.99,40.599998,,2013-05-09 01:00:00,
2013-05-08 20:42:00,65.0,37.0,-100.00,SSE,157,2.0,-999.0,34,-99.99,,,-99.99,40.599998,,2013-05-09 01:42:00,
2013-05-08 20:52:00,65.0,37.0,-100.00,SSE,157,2.0,-999.0,34,-99.99,,,-99.99,40.599998,,2013-05-09 01:52:00,
2013-05-08 21:00:00,59.0,35.0,-100.00,SSE,157,2.0,-999.0,39,-99.99,,,-99.99,0.000000,,2013-05-09 02:00:00,
2013-05-08 22:00:00,57.0,35.0,-100.00,SSE,157,1.0,-999.0,44,-99.99,,,-99.99,0.000000,,2013-05-09 03:00:00,
2013-05-08 22:43:00,57.0,35.0,-100.00,SSE,157,1.0,-999.0,44,-99.99,,,-99.99,0.000000,,2013-05-09 03:43:00,
2013-05-08 22:53:00,57.0,35.0,-100.00,SSE,157,1.0,-999.0,44,-99.99,,,-99.99,0.000000,,2013-05-09 03:53:00,
2013-05-08 23:00:00,53.0,38.0,-100.00,SE,135,1.0,-999.0,58,-99.99,,,-99.99,0.000000,,2013-05-09 04:00:00,
2013-05-08 23:43:00,53.0,38.0,-100.00,SE,135,1.0,-999.0,58,-99.99,,,-99.99,0.000000,,2013-05-09 04:43:00,
2013-05-08 23:53:00,53.0,38.0,-100.00,SE,135,1.0,-999.0,58,-99.99,,,-99.99,0.000000,,2013-05-09 04:53:00,